Santiago, Dominican Republic

3:04 AM AST on August 21, 2017 (GMT -0400)
Cibao International

Weather History for MDST - March, 2013

Change the Weather History Date:

Saturday, March 23, 2013

  Actual Average Record
Temperature  
Mean Temperature 81 °F -  
Max Temperature 91 °F 88 °F 93 °F (2005)
Min Temperature 71 °F 68 °F 55 °F (2011)
Cooling Degree Days 16    
Growing Degree Days 31 (Base 50)    
Moisture  
Dew Point 72 °F    
Average Humidity 75    
Maximum Humidity 100    
Minimum Humidity 41    
Precipitation  
Precipitation 0.00 in 0.12 in - ()
Sea Level Pressure  
Sea Level Pressure 29.98 in    
Wind  
Wind Speed 7 mph ()    
Max Wind Speed 14 mph    
Max Gust Speed -    
Visibility 6.0 miles    
Events      
Averages and records for this station are not official NWS values.
T = Trace of Precipitation, MM = Missing Value Source: Averaged Metar Reports

Daily Weather History Graph

Daily Weather History Graph

Search for Another Location

Airport or City:

Trip Planner

Search our weather history database for the weather conditions in past years. The results will help you decide how hot, cold, wet, or windy it might be!

Date:

Astronomy

Mar. 23, 2013 Rise Set
Actual Time 6:44 AM AST 6:54 PM AST
Civil Twilight 6:22 AM AST 7:16 PM AST
Nautical Twilight 5:56 AM AST 7:42 PM AST
Astronomical Twilight 5:31 AM AST 8:07 PM AST
Moon 3:42 PM AST (3/23) 3:51 AM AST (3/23)
Length of Visible Light 12h 54m
Length of Day
12h 10m
Waxing Gibbous, 85% of the Moon is Illuminated
Mar 23
Waxing Gibbous
Mar 27
Full
Apr 3
Last Quarter
Apr 10
New
Apr 18
First Quarter

Hourly Weather History & Observations

Time (AST) Temp. Heat Index Dew Point Humidity Pressure Visibility Wind Dir Wind Speed Gust Speed Precip Events Conditions
2:00 AM 71.6 °F - 71.6 °F 100% 30.01 in 6.2 mi East 4.6 mph - N/A   Scattered Clouds
6:00 AM 73.4 °F - 71.6 °F 94% 30.01 in 0.6 mi ESE 5.8 mph - N/A   Overcast
7:00 AM 73.4 °F - 71.6 °F 94% 30.01 in 6.2 mi SE 5.8 mph - N/A   Partly Cloudy
8:00 AM 74 °F - 73 °F 97% 30.06 in 5 mi SSE 6.7 mph - -   Haze
8:00 AM 73.4 °F - 73.4 °F 100% 30.04 in 6.2 mi SSE 5.8 mph - N/A   Scattered Clouds
9:00 AM 75.2 °F - 73.4 °F 94% 30.06 in 6.2 mi ESE 8.1 mph - N/A   Scattered Clouds
10:00 AM 78.8 °F - 73.4 °F 83% 30.06 in 6.2 mi SE 4.6 mph - N/A   Scattered Clouds
11:00 AM 81 °F - 73 °F 72% 30.08 in 6 mi SSE 8.9 mph - -   Haze
11:00 AM 80.6 °F 85.4 °F 73.4 °F 79% 30.06 in 6.2 mi SSE 9.2 mph - N/A   Mostly Cloudy
12:00 PM 84.2 °F 90.9 °F 73.4 °F 70% 30.04 in 6.2 mi SSE 8.1 mph - N/A   Mostly Cloudy
1:00 PM 86.0 °F 93.4 °F 73.4 °F 66% 30.01 in 6.2 mi SE 12.7 mph - N/A   Mostly Cloudy
2:00 PM 88 °F - 73 °F 53% 29.97 in 7 mi ESE 11.2 mph - -   Haze
2:00 PM 87.8 °F 95.6 °F 73.4 °F 62% 29.95 in 6.2 mi ESE 10.4 mph - N/A   Scattered Clouds
3:00 PM 87.8 °F 93.8 °F 71.6 °F 58% 29.92 in 6.2 mi ESE 13.8 mph - N/A   Scattered Clouds
4:00 PM 89.6 °F 96.2 °F 71.6 °F 55% 29.89 in 6.2 mi East 11.5 mph - N/A   Scattered Clouds
5:00 PM 90 °F - 69 °F 41% 29.90 in 7 mi SE 11.2 mph - -   Haze
5:00 PM 89.6 °F 94.7 °F 69.8 °F 52% 29.89 in 6.2 mi SE 10.4 mph - N/A   Scattered Clouds
6:00 PM 86.0 °F 90.4 °F 69.8 °F 58% 29.89 in 6.2 mi ESE 12.7 mph - N/A   Scattered Clouds
7:00 PM 82.4 °F 87.2 °F 71.6 °F 70% 29.95 in 6.2 mi SSE 9.2 mph - N/A   Scattered Clouds
8:00 PM 78 °F - 71 °F 74% 29.96 in 6 mi SE 6.7 mph - -   Haze
8:00 PM 78.8 °F - 71.6 °F 78% 29.95 in 6.2 mi SE 5.8 mph - N/A   Scattered Clouds
9:00 PM 77.0 °F - 69.8 °F 78% 29.95 in 6.2 mi ESE 11.5 mph - N/A   Scattered Clouds
10:00 PM 75.2 °F - 71.6 °F 89% 29.98 in 6.2 mi ESE 13.8 mph - N/A   Scattered Clouds
11:00 PM 75.2 °F - 71.6 °F 89% 29.98 in 6.2 mi ESE 11.5 mph - N/A   Scattered Clouds